Regional Weather Roundup
Issued by NWS

Home | Current Version | Previous Version | Graphics & Text | Print | Product List | Glossary On
Versions: 1 2 3 4 5 6 7 8 9 10 11 12 13 14 15 16 17 18 19 20 21 22 23 24 25 26 27 28 29 30 31 32 33 34 35 36 37 38 39 40 41 42 43 44 45 46 47 48 49 50
000
ASUS43 KDTX 220601
RWRMI
MICHIGAN HOURLY REGIONAL WEATHER ROUNDUP
NATIONAL WEATHER SERVICE DETROIT/PONTIAC MI
200 AM EDT TUE JUL 22 2014

NOTE: "FAIR" INDICATES FEW OR NO CLOUDS BELOW 12,000 FEET WITH NO
SIGNIFICANT WEATHER AND/OR OBSTRUCTION TO VISIBILITY.

MIZ047>049-052>055-059>063-066>070-074>076-081>083-220700-
SOUTHEAST LOWER MICHIGAN

CITY           SKY/WX    TMP DP  RH WIND       PRES   REMARKS
ADRIAN         CLEAR     65  59  81 CALM      30.11F
6HR MIN TEMP:  65; 6HR MAX TEMP:  81;

ALMA           CLEAR     64  63  95 CALM      30.09F FOG
ANN ARBOR      CLEAR     60  57  89 CALM      30.11F
BAD AXE        CLEAR     66  60  80 S3        30.11S
6HR MIN TEMP:  66; 6HR MAX TEMP:  79;

CARO           CLEAR     65  64  95 CALM      30.10S
DETROIT CITY   CLEAR     71  56  58 SE3       30.10F
6HR MIN TEMP:  71; 6HR MAX TEMP:  83;

DETROIT        CLEAR     69  62  78 CALM      30.11F HAZE
6HR MIN TEMP:  68; 6HR MAX TEMP:  79;

FLINT          CLEAR     67  58  72 CALM      30.10F
6HR MIN TEMP:  66; 6HR MAX TEMP:  83;

GROSSE ILE     CLEAR     70  64  83 CALM      30.09F
HILLSDALE      CLEAR     68  64  88 CALM      30.12S
6HR MIN TEMP:  68; 6HR MAX TEMP:  80;

HOWELL         CLEAR     65  60  82 SE3       30.11S

CITY           SKY/WX    TMP DP  RH WIND       PRES   REMARKS
JACKSON        CLEAR     69  60  73 S7        30.11S
6HR MIN TEMP:  68; 6HR MAX TEMP:  81;

LAMBERTVILLE   CLEAR     64  59  82 CALM      30.11F
LANSING        CLEAR     71  61  70 S6        30.10F
6HR MIN TEMP:  70; 6HR MAX TEMP:  80;

LAPEER         FAIR      62  59  91 CALM      30.12S
MASON          CLEAR     65  59  81 CALM      30.11S
MONROE         CLEAR     64  63  94 CALM      30.09F
MT. CLEMENS    CLEAR     64  59  84 N2        30.10S
6HR MIN TEMP:  64; 6HR MAX TEMP:  77;

PONTIAC        CLEAR     67  57  70 CALM      30.11S
6HR MIN TEMP:  67; 6HR MAX TEMP:  82;

PORT HOPE        N/A     71  60  68 SW3       30.08S
6HR MIN TEMP:  70; 6HR MAX TEMP:  77;

PORT HURON     FOG       61  61 100 CALM      30.11F VSB 1/4
TRI CITIES     CLEAR     72  64  76 S7        30.10R
6HR MIN TEMP:  71; 6HR MAX TEMP:  83;

TROY           CLEAR     71  56  60 CALM      30.12F
SAGINAW HB     CLEAR     70  63  78 S6        30.09S
$$
MIZ043>046-050>051-056>058-064>065-071>073-077>080-220700-
SOUTHWEST LOWER MICHIGAN

CITY           SKY/WX    TMP DP  RH WIND       PRES   REMARKS
BATTLE CREEK   CLEAR     68  63  84 CALM      30.10S
6HR MIN TEMP:  67; 6HR MAX TEMP:  81;

BENTON HARBOR  CLEAR     64  62  93 SE3       30.07S FOG
6HR MIN TEMP:  63; 6HR MAX TEMP:  78;

BIG RAPIDS     CLEAR     64  64 100 CALM      30.07F
6HR MIN TEMP:  64; 6HR MAX TEMP:  79;

COLDWATER      CLEAR     67  64  92 SE3       30.10S
6HR MIN TEMP:  67; 6HR MAX TEMP:  82;

FREMONT        FAIR      66  64  91 S3        30.06S
HOLLAND        CLEAR     68  64  87 S5        30.07F FOG
6HR MIN TEMP:  65; 6HR MAX TEMP:  80;

GRAND RAPIDS   CLEAR     69  65  86 CALM      30.08F
6HR MIN TEMP:  69; 6HR MAX TEMP:  82;

IONIA          FAIR      65  63  93 CALM      30.08F
KALAMAZOO      CLEAR     68  63  84 CALM      30.09S
6HR MIN TEMP:  67; 6HR MAX TEMP:  82;

LUDINGTON      CLEAR     72  64  75 S8        30.04S
6HR MIN TEMP:  69; 6HR MAX TEMP:  77;

MARSHALL       CLEAR     66  63  88 CALM      30.10S
MOUNT PLEASANT CLEAR     65  64  97 CALM      30.07F FOG
6HR MIN TEMP:  64; 6HR MAX TEMP:  81;

MUSKEGON       CLEAR     71  62  73 SE8       30.05F
6HR MIN TEMP:  69; 6HR MAX TEMP:  78; 6HR PCP: TRACE;

SOUTH HAVEN    CLEAR     65  65 100 CALM      30.07F
$$
MIZ016>042-220700-
NORTHERN LOWER MICHIGAN

CITY           SKY/WX    TMP DP  RH WIND       PRES   REMARKS
ALPENA         PTCLDY    71  64  78 SW3       30.06F
6HR MIN TEMP:  71; 6HR MAX TEMP:  83; 6HR PCP: TRACE;

BEAVER ISLAND  CLEAR     71  62  73 S7        30.01F
6HR MIN TEMP:  69; 6HR MAX TEMP:  73;

BELLAIRE       CLEAR     64  62  93 CALM      30.03S
6HR MIN TEMP:  64; 6HR MAX TEMP:  83;

CADILLAC       CLEAR     67  63  86 S3        30.07F
CHARLEVOIX     CLEAR     69  63  81 S3        30.05S
6HR MIN TEMP:  69; 6HR MAX TEMP:  79;

FRANKFORT      CLEAR     73  60  65 SE5       30.03S
GAYLORD        CLEAR     71  62  73 CALM      30.08S
6HR MIN TEMP:  71; 6HR MAX TEMP:  87;

GRAYLING       CLEAR     62  62 100 CALM      30.08F
HARBOR SPRINGS CLEAR     66  62  87 NE3       30.03F
HOUGHTON LAKE  CLEAR     66  64  93 S5        30.09F
6HR MIN TEMP:  63; 6HR MAX TEMP:  79;

MANISTEE       CLEAR     66  59  77 E3        30.04F
OSCODA         CLEAR     67  64  91 SW5       30.07F
PELLSTON       CLEAR     64  62  93 S3        30.03F
6HR MIN TEMP:  64; 6HR MAX TEMP:  78;

ROGERS CITY    CLEAR     70  66  85 SW7       30.05F
TRAVERSE CITY  CLEAR     70  61  73 SE3       30.02F
6HR MIN TEMP:  70; 6HR MAX TEMP:  83;

$$
MIZ007>008-015-220700-
EASTERN UPPER MICHIGAN

CITY           SKY/WX    TMP DP  RH WIND       PRES   REMARKS
KINROSS        CLEAR     64  61  88 S5        30.02F
6HR MIN TEMP:  64; 6HR MAX TEMP:  77;

MACKINAC ISLAN CLEAR     68  63  84 SE8       30.02F
6HR MIN TEMP:  64; 6HR MAX TEMP:  73;

NEWBERRY       CLEAR     65  57  75 S10G21    29.99F
6HR MIN TEMP:  65; 6HR MAX TEMP:  72;

S. S. MARIE    CLEAR     65  59  81 CALM      30.02S
6HR MIN TEMP:  65; 6HR MAX TEMP:  79;

$$
MIZ004>006-011>014-085-220700-
CENTRAL UPPER MICHIGAN

CITY           SKY/WX    TMP DP  RH WIND       PRES   REMARKS
MANISTIQUE     CLEAR     61  60  94 S5        29.99S
ESCANABA       CLEAR     66  61  82 S7        29.96F
6HR MIN TEMP:  66; 6HR MAX TEMP:  73;

MENOMINEE      CLEAR     70  63  78 SW10      29.96F
6HR MIN TEMP:  70; 6HR MAX TEMP:  75;

SAWYER-GWINN   CLEAR     69  64  86 S10       29.95S
6HR MIN TEMP:  68; 6HR MAX TEMP:  83;

$$
MIZ001>003-009>011-084-220700-
WESTERN UPPER MICHIGAN

CITY           SKY/WX    TMP DP  RH WIND       PRES   REMARKS
IRON MOUNTAIN  CLEAR     70  66  87 SE5       29.95F
6HR MIN TEMP:  70; 6HR MAX TEMP:  82;

HOUGHTON       CLEAR     74  69  85 S9        29.87F
6HR MIN TEMP:  72; 6HR MAX TEMP:  80;

IRONWOOD       CLEAR     77  66  69 S8        29.83F
6HR MIN TEMP:  77; 6HR MAX TEMP:  86;

$$

ABBREVIATIONS USED IN REMARKS
   TC - TEMPERATURE IN CELSIUS
  WCI - WIND CHILL INDEX
   HX - HEAT INDEX
  VSB - VISIBILITY




USA.gov is the U.S. government's official web portal to all federal, state and local government web resources and services.